GFSSW_2pvu_pres_021.txt.gz
Presure
134 96 107 94 96 95 120 93 110 115 104 105 112 115 111 115 112 115 117 109 108 106 113 123 106 98 111 126 113 137 172 158 151 136 126 134 136 134 134 140 125 112 124 125 133
127 117 136 103 106 110 102 114 123 101 106 113 107 107 113 115 118 119 120 121 111 102 115 119 110 105 119 126 129 131 133 170 118 123 134 129 135 138 133 137 141 118 128 120 134
107 142 153 143 110 107 110 101 104 115 120 117 115 108 112 110 109 111 109 118 109 124 120 121 111 107 120 119 155 134 192 205 119 157 128 137 129 139 137 135 140 140 102 94 131
119 146 146 143 137 108 105 105 107 125 111 121 103 106 119 107 106 95 120 122 127 119 114 121 112 126 115 129 114 144 133 110 154 194 131 130 137 130 139 100 138 135 95 145 139
195 132 156 159 139 139 144 153 115 132 124 130 117 118 118 121 104 118 108 114 105 117 113 126 118 129 125 186 140 200 214 125 210 171 151 144 134 131 133 133 138 141 144 132 130
223 226 214 189 159 155 231 197 135 123 132 118 120 139 105 122 126 124 108 123 110 117 123 135 117 134 155 167 181 128 139 204 212 209 196 171 153 137 133 133 137 143 133 130 125
223 218 209 219 211 164 220 172 137 125 113 175 192 125 127 135 115 126 126 129 111 115 125 154 150 180 193 183 186 174 140 176 169 170 190 199 201 103 158 127 134 114 127 108 139
225 237 225 203 207 214 215 217 159 125 123 221 210 130 181 206 139 149 126 131 121 113 125 149 153 190 179 181 185 167 137 141 183 161 168 172 182 187 183 136 137 135 136 146 146
255 242 237 229 227 221 205 206 211 189 193 217 221 163 167 200 125 201 167 143 142 118 135 181 125 178 189 182 177 170 151 165 167 197 204 200 192 193 189 138 134 160 123 143 144
248 251 237 235 247 212 211 214 201 201 205 213 214 175 188 203 199 204 200 175 180 164 202 192 186 167 188 186 178 170 151 168 169 214 201 193 190 214 150 137 132 131 165 109 145
235 245 237 241 239 236 209 202 207 202 197 202 207 202 216 203 201 171 195 178 195 206 204 183 166 170 181 188 176 176 172 166 186 238 153 201 218 135 135 133 136 144 139 141 132
229 237 229 224 222 225 207 192 207 202 199 202 199 203 204 201 191 192 188 189 190 190 159 201 195 181 191 184 177 173 115 172 188 222 215 237 241 137 128 179 115 130 98 111 163
221 236 225 219 223 218 221 219 202 200 195 194 198 195 192 193 191 192 189 190 190 187 205 196 186 190 195 188 175 169 164 183 195 178 204 234 230 188 132 238 140 141 136 95 198
228 216 217 216 217 216 205 211 197 221 200 194 188 196 198 192 190 190 191 191 191 197 196 187 190 188 194 197 207 180 211 203 198 196 195 193 125 237 247 258 138 140 134 93 125
219 219 214 212 217 215 215 213 205 215 192 202 203 193 196 198 188 193 185 189 193 196 188 187 184 187 213 199 188 201 203 206 203 197 193 192 192 263 237 246 250 242 241 243 248
220 218 217 221 221 215 212 217 217 201 207 212 200 193 199 187 188 190 188 183 185 195 190 183 180 172 195 169 197 187 205 198 198 205 184 192 243 226 146 233 230 219 225 208 253
196 195 196 199 202 209 212 213 213 211 221 201 189 189 201 186 184 190 184 185 188 191 189 182 185 180 161 199 202 178 197 190 203 210 193 185 198 223 220 212 160 221 237 248 263
197 197 200 198 196 198 194 199 206 209 212 193 193 195 193 183 183 183 180 183 185 185 193 185 176 163 173 194 202 194 191 194 189 206 200 193 200 209 204 208 213 124 221 159 251
194 193 194 184 190 193 190 189 194 195 194 198 199 200 202 200 199 196 190 188 189 191 188 191 179 171 178 187 196 192 188 185 181 204 177 196 195 204 205 153 216 215 223 255 134
175 194 189 189 185 183 187 189 189 190 191 193 196 198 202 201 196 196 195 197 202 205 191 188 174 183 180 188 211 188 189 190 160 206 204 195 198 205 123 219 154 216 230 250 256
186 190 197 191 183 182 188 185 187 190 190 189 189 191 194 196 199 205 202 205 203 201 202 198 186 196 186 214 209 195 197 190 215 213 211 194 200 198 211 222 217 223 241 254 112
186 190 183 183 188 189 187 189 188 186 184 193 189 191 198 201 205 202 203 203 199 203 206 202 203 204 202 201 198 193 191 175 218 218 211 204 187 200 212 208 103 211 245 250 234
184 199 190 185 189 190 189 182 189 190 190 190 193 200 241 258 253 237 220 210 227 207 199 197 200 198 195 194 194 179 228 222 217 213 210 203 202 194 217 144 214 200 258 237 222
191 187 192 204 189 199 189 188 189 163 189 185 196 242 253 235 230 239 237 236 237 123 215 217 215 230 231 231 203 222 228 223 214 217 211 207 188 209 204 211 205 188 259 225 223
196 194 195 194 193 192 191 190 193 187 190 181 214 227 233 233 237 241 238 236 233 225 223 224 223 223 226 230 221 220 222 244 216 214 208 239 221 215 251 244 200 202 253 228 238
194 206 195 198 197 189 197 195 164 187 189 181 205 209 227 225 224 229 236 220 218 218 220 215 213 216 223 228 257 266 265 280 280 260 223 255 210 205 187 209 211 229 245 228 224
192 189 204 199 210 194 205 196 188 187 190 179 191 208 206 220 174 215 210 211 215 211 207 206 171 217 219 237 251 254 253 250 263 209 215 210 220 226 229 200 273 243 208 231 219

GFSSW_2pvu_pres_024.txt.gz
Presure
106 106 92 99 95 95 140 105 115 111 110 110 107 102 102 100 108 93 115 117 106 119 116 104 104 108 120 111 111 107 126 126 117 124 138 150 116 124 138 128 135 126 127 142 115
90 115 101 118 102 110 96 109 100 110 100 104 99 111 105 107 112 116 107 115 106 117 120 116 104 118 119 115 110 114 126 135 116 123 131 118 112 194 126 137 137 87 153 127 141
110 121 118 111 101 117 101 111 99 107 110 111 116 114 117 111 115 110 115 120 118 115 121 115 116 117 117 95 109 115 124 103 141 125 125 117 142 209 184 129 143 105 123 88 100
106 114 128 128 115 109 116 120 111 110 114 103 112 105 121 123 110 110 119 117 116 117 107 112 112 127 115 113 125 122 124 95 119 133 215 169 193 203 203 131 128 141 139 125 138
139 109 135 128 116 106 134 115 127 100 105 105 104 114 114 97 113 125 112 109 104 114 116 119 109 111 108 105 112 120 116 128 128 185 164 178 183 211 198 192 153 115 134 144 144
127 149 148 145 130 144 136 144 116 127 123 115 116 119 123 122 115 116 121 121 137 124 125 103 116 114 122 112 113 116 134 130 146 165 191 164 152 214 213 217 201 200 137 142 144
214 199 179 168 151 136 167 149 122 133 156 120 118 135 127 121 118 121 108 127 117 118 126 128 113 115 106 119 126 122 119 140 195 180 193 178 176 180 170 183 188 97 198 138 125
222 200 205 209 216 224 169 230 224 185 119 171 121 143 123 121 127 129 122 134 135 116 111 122 115 132 117 126 139 117 140 191 186 187 189 173 165 95 195 165 170 176 183 151 151
224 201 181 214 194 204 221 186 167 222 144 167 145 131 123 199 133 149 129 123 126 122 126 126 121 127 129 164 123 154 137 191 189 188 183 175 158 173 181 181 212 222 217 140 125
218 218 221 222 225 223 222 226 217 212 216 213 190 133 205 192 125 187 123 141 139 191 117 124 150 137 146 148 145 138 198 175 183 193 184 180 160 177 238 250 226 229 149 116 134
216 220 219 249 219 216 211 254 221 208 196 212 208 212 208 206 179 212 141 124 178 188 133 117 192 199 193 148 195 191 189 171 177 191 182 184 182 169 250 136 159 260 265 109 136
219 224 236 257 244 252 239 218 215 213 217 201 203 211 203 209 218 210 151 149 200 200 193 149 196 187 191 201 195 190 196 175 188 186 181 179 177 194 200 129 221 221 132 261 146
224 234 229 240 256 243 241 233 235 217 211 201 201 203 205 202 205 210 166 201 196 194 194 194 191 193 197 197 183 202 193 186 188 191 186 181 179 198 207 211 179 128 131 176 256
213 214 231 229 234 240 238 229 230 219 208 207 203 199 200 196 199 202 202 213 195 195 195 189 190 185 190 183 198 176 185 189 207 179 204 169 205 216 202 206 146 234 267 269 151
207 201 231 218 225 235 226 225 233 227 203 225 192 203 199 192 199 196 197 199 198 193 187 188 186 187 188 198 194 185 188 213 202 173 199 209 201 177 215 195 342 224 235 243 233
209 207 218 226 223 223 215 215 214 215 221 207 190 202 200 191 192 194 189 191 189 186 188 187 189 189 195 194 187 188 189 199 198 201 200 202 201 142 205 103 202 172 102 221 222
208 207 216 230 215 219 216 212 212 217 207 212 207 198 214 190 188 188 193 193 193 188 189 190 186 189 198 190 185 185 179 181 206 192 206 193 216 203 212 189 205 221 206 213 140
196 205 215 226 218 211 216 222 220 212 214 213 204 193 214 189 195 194 196 194 195 187 188 186 188 187 195 190 183 182 183 173 218 190 200 193 109 190 185 207 202 217 220 208 219
194 206 210 230 218 214 225 223 213 207 217 222 205 206 200 208 206 200 192 199 191 186 185 193 185 187 187 190 179 179 176 168 198 188 198 189 184 214 210 150 203 202 208 225 224
191 201 203 201 200 197 200 196 197 208 215 208 195 201 208 206 195 197 197 200 190 186 183 193 187 193 192 193 191 98 167 176 193 203 174 190 185 179 235 210 249 209 219 224 225
192 195 202 196 193 195 195 194 195 193 189 185 192 208 209 203 198 196 201 198 198 184 195 190 200 194 183 188 198 182 174 184 192 207 196 193 197 218 225 205 158 193 221 218 213
196 189 195 198 201 195 193 189 189 186 182 181 189 189 192 197 198 197 198 200 200 197 196 198 199 201 205 200 194 173 196 184 213 207 193 189 205 205 210 187 213 185 210 218 210
204 189 190 191 183 189 196 188 184 180 186 194 190 189 191 193 189 190 194 198 190 201 202 206 208 209 204 200 201 185 194 207 201 200 190 183 222 232 221 205 189 267 200 215 202
181 194 196 192 189 188 192 185 182 189 186 189 188 188 189 185 190 192 193 196 191 200 195 201 203 202 198 203 204 199 202 202 198 219 190 230 218 210 216 196 248 131 194 243 192
189 186 196 184 188 196 186 194 188 199 189 190 189 189 187 190 194 191 242 243 242 236 241 240 203 195 202 198 198 197 230 233 239 238 237 235 220 209 128 178 169 208 151 223 201
197 187 190 197 189 181 191 185 178 187 194 189 186 189 193 189 188 263 241 242 240 241 236 231 240 235 226 230 236 231 228 226 219 234 231 237 221 198 162 240 173 177 188 197 203
202 193 190 202 183 193 196 196 192 193 200 193 187 189 190 180 184 234 233 228 220 232 223 230 226 220 215 220 227 217 234 237 260 278 300 304 245 204 187 201 186 198 195 206 233

GFSSW_2pvu_pres_030.txt.gz
Presure
102 117 115 119 109 127 105 98 107 110 122 122 110 101 102 104 108 108 102 109 116 109 108 108 111 113 103 131 125 127 128 109 82 121 114 118 125 120 127 124 113 128 139 176 206
107 102 105 99 99 108 105 103 111 102 105 113 114 111 113 109 110 109 106 103 102 102 105 111 114 114 110 117 114 122 125 98 119 113 125 117 123 111 124 122 130 134 208 203 154
106 97 136 97 109 102 97 109 110 116 104 123 106 101 111 110 106 111 101 109 111 112 109 111 113 110 111 102 122 124 119 96 120 108 127 128 125 131 105 133 130 136 138 129 188
94 97 107 111 109 107 109 100 101 108 101 108 110 98 118 100 110 110 119 118 121 123 116 118 116 117 117 116 125 112 124 102 120 92 122 114 126 124 126 120 132 145 209 92 91
118 118 107 113 110 110 110 112 114 115 110 106 115 108 116 118 119 117 114 124 123 117 125 133 123 120 121 119 121 119 125 113 121 121 131 130 128 133 135 121 123 140 147 86 184
111 124 118 107 104 106 125 116 110 115 112 114 112 114 114 113 101 102 112 121 115 122 128 124 120 113 109 120 121 120 95 117 127 136 131 107 122 111 112 121 140 133 196 190 181
132 133 107 109 114 126 120 116 126 119 98 104 111 109 117 102 120 117 115 119 123 126 136 129 123 138 135 133 127 139 130 143 122 129 123 145 121 137 129 136 142 177 191 198 188
126 122 122 125 134 111 125 122 114 115 114 118 112 117 118 118 120 117 107 116 123 115 115 111 124 129 141 112 129 136 90 108 129 140 142 136 145 128 138 139 108 151 200 198 192
178 156 182 147 127 119 120 124 127 124 135 112 131 112 126 109 111 115 121 116 125 117 127 116 125 111 127 121 115 79 142 128 138 131 129 139 135 134 134 139 201 163 198 193 187
211 163 166 168 128 161 134 138 139 131 145 127 124 130 115 119 109 127 135 130 120 128 124 139 124 116 122 131 120 133 133 98 144 137 138 128 137 134 143 173 198 193 190 194 181
212 222 210 216 227 228 197 230 232 124 148 123 131 230 122 118 135 126 127 132 236 127 168 144 168 137 210 131 176 177 129 169 204 194 126 182 132 198 201 204 168 201 205 282 224
207 168 217 218 217 220 219 222 195 225 182 219 220 217 167 182 221 216 224 220 217 212 110 215 205 169 190 144 155 164 142 118 138 159 106 170 153 214 200 206 208 225 215 282 232
206 206 207 209 211 210 219 212 216 218 236 236 229 223 211 211 212 209 208 208 216 212 173 167 207 209 216 215 216 213 210 171 195 197 203 200 206 198 209 202 218 208 249 235 240
202 201 207 205 203 205 205 201 223 228 229 225 220 219 213 213 210 208 204 201 202 200 199 211 201 199 199 206 210 203 199 187 178 193 193 202 197 211 185 199 215 239 235 236 189
193 197 201 196 201 199 201 225 214 219 219 228 222 235 216 221 212 209 210 201 199 198 213 203 205 198 203 206 208 206 199 201 198 197 198 194 197 205 197 204 197 237 225 191 232
198 201 203 200 206 218 219 215 214 223 240 255 259 233 238 211 205 213 208 205 200 200 200 207 207 206 210 203 199 200 197 199 191 196 198 197 203 201 194 203 204 199 208 186 190
201 205 204 207 213 206 207 239 240 213 211 245 249 234 241 230 208 202 206 208 197 197 208 211 196 198 204 206 204 201 197 193 198 193 197 198 202 131 187 196 195 197 195 172 172
210 205 205 209 201 205 203 206 203 195 214 236 252 247 240 236 234 206 205 206 201 194 194 198 194 194 200 202 207 199 194 199 192 194 194 203 198 197 180 206 204 182 227 260 95
201 201 203 210 203 203 199 203 194 206 222 226 245 237 234 229 215 221 201 206 200 198 195 200 195 194 197 199 198 202 201 192 192 197 191 201 195 195 178 204 181 269 158 155 100
205 200 204 206 202 194 192 201 198 211 225 226 238 227 225 221 234 222 197 201 202 198 198 197 200 194 199 193 195 191 192 187 192 191 192 202 193 186 178 166 254 270 145 220 177
207 206 203 196 199 191 192 190 205 209 221 234 226 215 219 227 218 218 202 207 208 195 199 205 200 192 190 191 195 194 193 194 195 191 191 200 203 183 175 193 221 162 203 202 110
204 207 201 200 198 194 190 211 210 209 228 226 215 207 207 208 211 212 201 199 205 199 192 220 195 186 185 187 196 199 202 192 193 199 192 198 201 170 172 222 203 181 197 217 221
208 204 202 204 198 197 193 212 202 218 226 220 210 213 203 205 212 213 209 205 208 201 216 213 191 190 206 201 198 205 195 196 192 197 200 192 201 173 192 220 221 209 132 202 130
210 206 196 195 204 196 191 201 197 227 216 218 212 207 204 205 218 208 210 218 212 211 213 218 208 202 208 201 201 200 199 197 195 188 211 207 227 132 203 173 199 188 187 127 158
210 212 206 206 206 195 191 188 196 221 238 214 212 210 206 208 216 215 207 207 208 208 205 204 203 195 197 200 203 179 206 209 214 206 210 223 206 185 193 194 209 169 189 170 182
201 198 203 209 204 199 197 189 196 207 200 211 211 210 198 206 204 193 191 194 193 195 195 196 197 198 201 201 202 202 205 211 217 217 224 214 119 205 201 204 190 172 170 168 172
216 209 206 214 211 208 197 193 199 205 189 202 196 195 189 188 191 185 186 188 190 192 190 196 198 195 194 202 203 203 217 209 211 215 209 206 203 213 217 217 230 221 191 178 166

GFSSW_2pvu_pres_033.txt.gz
Presure
108 110 106 105 108 111 127 114 109 104 107 115 106 92 98 111 111 103 97 103 108 111 107 108 104 107 113 115 108 116 111 102 115 89 122 127 116 112 115 112 110 119 112 130 106
118 106 115 115 108 93 111 104 104 102 112 110 112 112 107 110 103 107 106 106 105 103 106 111 110 111 114 114 104 114 122 114 121 98 110 124 117 110 129 120 124 125 122 126 133
107 109 109 96 111 112 111 107 100 99 108 106 108 101 97 117 119 116 118 110 116 113 92 116 111 110 112 118 110 118 127 100 119 113 100 119 127 123 125 121 120 118 108 135 129
101 113 127 133 109 135 109 110 98 102 108 94 116 115 116 110 103 112 97 116 100 111 117 118 124 125 119 124 124 121 127 113 117 108 123 123 113 124 130 132 130 117 122 134 132
103 106 100 91 107 110 114 113 120 109 106 109 110 98 112 121 109 118 114 119 121 120 114 111 114 124 125 130 133 126 121 96 107 122 111 129 111 166 133 134 138 138 104 138 138
111 128 112 97 104 112 103 106 113 108 106 106 105 133 112 121 127 118 116 125 108 117 115 118 116 127 127 126 130 133 86 135 122 146 147 104 120 97 132 139 137 135 113 128 174
119 110 101 106 117 105 119 119 117 108 99 115 117 100 100 110 108 119 120 105 115 132 117 118 118 127 133 137 106 118 111 114 142 142 142 138 133 107 104 142 138 94 185 147 194
132 107 106 106 107 106 103 107 106 105 107 108 115 103 112 118 119 118 123 115 117 116 120 113 118 104 125 124 114 123 130 100 94 110 138 132 128 126 105 138 153 153 148 199 194
135 129 124 116 106 108 121 108 123 122 117 124 131 118 116 116 114 106 108 114 109 109 117 122 123 133 107 130 124 130 130 132 124 137 178 134 128 137 123 143 159 143 195 208 203
127 125 128 128 124 129 127 124 126 121 116 118 127 140 116 112 124 123 127 112 123 117 118 125 112 122 130 127 135 118 126 122 117 141 132 214 123 149 188 136 162 128 216 201 104
167 125 149 139 134 141 124 109 114 112 113 129 131 117 120 115 119 124 123 134 118 140 123 117 133 140 126 124 120 138 141 101 201 224 137 231 143 160 150 190 207 205 208 221 193
184 176 171 150 143 153 157 147 145 184 142 139 137 125 125 123 128 121 128 129 140 125 128 135 128 122 125 131 115 149 219 146 116 230 161 173 163 207 144 199 206 209 219 209 230
213 220 214 217 211 179 191 189 164 195 226 228 223 222 217 219 178 149 135 133 199 131 129 219 181 220 173 206 225 225 221 178 215 190 169 188 209 208 198 198 163 224 232 223 232
213 210 205 206 208 209 208 212 219 220 218 221 217 216 212 225 212 203 206 210 219 220 217 204 210 213 206 202 212 217 215 210 220 214 205 204 204 203 194 197 214 209 225 202 194
204 207 207 206 210 197 205 211 213 212 211 211 211 214 220 228 228 222 221 215 209 208 210 204 208 198 198 203 204 207 207 208 217 203 202 198 199 203 193 204 94 218 210 198 195
195 197 205 205 205 202 210 202 201 212 201 203 203 209 206 221 222 222 220 210 204 210 207 200 198 199 200 202 212 215 206 206 206 205 201 197 195 195 199 203 211 224 204 192 189
196 196 200 197 197 205 200 196 205 195 200 212 221 222 214 220 223 216 214 213 210 205 204 201 202 201 203 211 205 208 210 205 207 202 198 196 193 195 196 191 189 205 209 209 166
194 192 192 195 204 197 203 202 205 197 213 219 216 214 230 249 256 233 216 216 226 208 204 205 205 200 199 204 198 194 202 207 202 202 195 195 191 200 196 193 183 213 251 216 185
196 201 198 194 196 201 201 205 200 208 207 206 227 228 219 223 255 251 236 238 224 211 211 204 205 206 195 203 204 196 202 201 207 200 192 194 194 196 196 191 171 206 212 191 192
195 196 198 196 198 206 201 202 203 203 208 211 207 211 208 224 258 251 235 222 215 235 200 203 217 202 198 194 194 195 200 201 199 199 195 193 195 190 198 187 177 194 235 177 163
203 199 224 212 204 201 200 198 206 199 201 205 206 199 219 225 241 245 234 223 232 222 202 201 213 202 193 197 196 195 197 196 198 193 190 191 197 187 195 183 83 205 186 175 186
214 197 205 206 201 207 198 201 201 200 199 216 206 206 227 218 234 239 226 220 225 205 199 199 212 207 191 195 197 195 195 196 192 194 194 196 198 194 193 186 174 238 203 168 154
217 206 208 198 214 206 198 201 198 200 195 192 204 205 215 218 228 230 221 221 220 225 205 198 196 199 188 191 205 209 193 191 197 200 205 192 199 198 196 197 165 183 180 222 226
220 218 214 217 213 205 200 202 198 199 194 195 218 212 217 216 217 227 223 213 214 214 201 204 205 199 186 208 202 194 196 198 199 203 205 189 189 193 193 204 180 228 210 221 180
222 222 218 217 217 208 205 198 201 198 200 191 207 210 221 208 210 230 217 208 209 210 207 200 203 210 217 206 198 196 200 211 208 214 213 196 193 210 199 215 187 246 186 179 170
238 222 222 213 215 207 206 203 201 203 201 193 198 217 219 208 200 205 199 207 214 208 200 217 212 198 188 197 133 206 207 208 200 209 212 213 179 203 204 209 182 198 214 166 192
275 228 219 221 215 208 206 204 202 204 197 191 200 219 217 204 203 203 210 212 200 204 208 206 205 206 210 206 207 204 204 206 211 212 208 213 212 219 210 207 189 207 193 191 163